[[{"header":{"parameterUnit":"m.s-1","parameterCategory":1,"la1":30.2991,"la2":30.254,"lo1":-89.0895,"lo2":-89.0444,"dy":0.0017,"dx":0.0017,"nx":28,"ny":28,"refTime":"2023-08-09T09:00:00:Z","depth":0,"parameterNumber":2,"parameterNumberName":"U-component_of_WINDS"},"data":[0,0,0,0,0,0,0,0,0,0,0,0,0,0,0,0,0,0,0,0,0,0,0,0,0,0,0,0,0,0,0,0,0,0,0,0,0,0,0,0,0,0,0,0,0,0,0,0,0,0,0,0,0,0,0,0,0,0,2.1185,2.1186,0,2.1232,2.1232,2.1233,2.1222,2.1221,2.122,2.122,2.127,2.1272,2.1274,0,0,0,0,0,0,0,0,0,0,0,0,0,2.1096,2.1097,2.1185,2.1186,2.1186,2.1231,2.1232,2.1233,2.1222,2.1221,2.122,2.1219,2.1269,2.1271,2.1274,0,0,0,0,0,0,0,0,0,0,0,0,0,2.1138,2.1098,2.1185,2.1187,2.1187,2.1231,2.1232,2.1233,2.1223,2.1221,2.122,2.1219,2.1268,2.1271,2.1274,2.1321,0,0,2.1284,2.1286,0,0,0,0,0,0,0,0,2.1135,2.1141,2.1186,2.1187,2.1187,2.122,2.1219,2.1262,2.1223,2.1209,2.122,2.1218,2.1254,2.1259,2.127,2.1323,2.1325,2.1285,2.1286,2.1288,2.1289,0,0,0,0,0,0,0,2.1132,2.1139,2.1204,2.1187,2.1187,2.1188,2.1192,2.1227,2.1239,2.121,2.121,2.1215,2.1254,2.1267,2.1271,2.1326,2.1284,2.1287,2.1289,2.1291,2.1428,2.1429,0,0,0,0,0,0,2.1128,2.1136,2.1202,2.1205,2.1157,2.119,2.1195,2.1211,2.1238,2.1241,2.1216,2.1214,2.1262,2.1268,2.1273,2.1334,2.1288,2.1291,2.1293,2.1426,2.1428,2.143,0,0,0,0,0,0,2.1126,2.1134,2.12,2.1171,2.1179,2.1193,2.1211,2.1212,2.1225,2.1243,2.1245,2.1226,2.1261,2.1268,2.1311,2.1335,2.1292,2.1295,2.1424,2.1427,2.1429,2.1453,0,0,0,0,0,0,2.1123,2.1133,2.1149,2.1171,2.1181,2.1235,2.1212,2.1214,2.123,2.1228,2.1253,2.1256,2.1261,2.1306,2.1314,2.1339,2.1298,2.1422,2.1425,2.1428,2.145,2.1456,2.1462,0,0,0,0,0,2.112,2.1153,2.1149,2.1157,2.12,2.1236,2.1242,2.1246,2.1232,2.125,2.1263,2.1255,2.1332,2.131,2.1319,2.1346,2.142,2.1424,2.1428,2.1448,2.1455,2.1461,0,0,0,0,0,0,2.1132,2.1155,2.1152,2.1192,2.1212,2.1234,2.1255,2.1253,2.1277,2.1275,2.128,2.1286,2.133,2.1342,2.1318,2.1396,2.1374,2.138,2.1386,2.1394,2.1399,2.1396,2.13,0,0,0,0,0,2.1139,2.1164,2.1184,2.1218,2.1229,2.1241,2.1256,2.1259,2.128,2.1289,2.1304,2.1327,2.1357,2.1375,2.1403,2.1453,2.1461,2.1476,2.1482,2.1486,2.1491,2.1525,2.1534,2.1443,2.1443,2.1443,0,0,2.1154,2.117,2.1185,2.1221,2.1237,2.1266,2.1248,2.1278,2.1301,2.1293,2.1335,2.1348,2.1374,2.1422,2.1443,2.1433,2.1519,2.1491,2.1495,2.1497,2.153,2.1539,2.1546,2.1445,2.1445,2.1444,0,0,2.1197,2.121,2.1242,2.126,2.1285,2.1294,2.1302,2.1326,2.1334,2.1376,2.1374,2.1403,2.1452,2.1473,2.1489,2.1549,2.1545,2.1558,2.1587,2.162,2.1627,2.1634,2.1659,2.1668,2.1563,2.1563,2.1563,0,2.1212,2.1254,2.1259,2.1292,2.131,2.1306,2.1341,2.1359,2.1392,2.1406,2.1394,2.1461,2.1477,2.1533,2.1548,2.1561,2.1574,2.1554,2.1625,2.1632,2.1638,2.1663,2.1672,2.1564,2.1564,2.1564,2.1564,0,2.1275,2.1305,2.1328,2.1362,2.1383,2.1417,2.143,2.1451,2.1454,2.1466,2.1513,2.1534,2.1569,2.1582,2.1583,2.164,2.1634,2.1623,2.1602,2.1648,2.1672,2.1681,2.1567,2.1566,2.1566,2.1565,0,0,2.1322,2.1362,2.1371,2.1389,2.142,2.1445,2.1482,2.1516,2.1537,2.1562,2.1596,2.1641,2.1634,2.1654,2.1659,2.1687,2.174,2.1674,2.1675,2.1689,2.181,2.1819,2.1829,2.1738,2.1739,2.1741,2.1809,0,2.137,2.1432,2.1441,2.1498,2.1529,2.153,2.1563,2.1587,2.1601,2.1632,2.1648,2.1682,2.1667,2.1681,2.1709,2.1727,2.1764,2.1722,2.1773,2.1774,2.1768,2.1841,2.1849,2.1912,2.1818,2.1819,2.182,0,2.1432,2.1462,2.1522,2.1555,2.1568,2.1597,2.1634,2.1662,2.1693,2.1701,2.1727,2.173,2.1773,2.175,2.1812,2.1783,2.1806,2.1819,2.1821,2.1827,2.1801,2.1852,2.1931,2.1942,2.1834,2.1833,2.1832,0,2.1466,2.152,2.1564,2.1579,2.1618,2.1639,2.1657,2.1686,2.1709,2.1742,2.1758,2.1795,2.1816,2.1847,2.1863,2.1844,2.1926,2.1903,2.1938,2.1938,2.1955,2.1954,2.2042,2.1966,2.1965,2.1965,2.1965,0,2.1519,2.1557,2.1581,2.1608,2.1653,2.1665,2.171,2.1727,2.1755,2.1789,2.1792,2.1824,2.1842,2.1879,2.1891,2.1944,2.1953,2.1964,2.1967,2.1965,2.1964,2.198,2.1977,2.1968,2.1967,2.1967,2.1966,0,2.1562,2.1579,2.1629,2.1663,2.1673,2.1705,2.1736,2.1765,2.1781,2.1825,2.1836,2.1862,2.1906,2.1925,2.1978,2.1988,2.205,2.2048,2.2039,2.2041,2.2076,2.2074,2.2179,2.2196,2.2106,2.2107,2.2107,0,2.1596,2.1625,2.1664,2.1688,2.1706,2.1743,2.1767,2.1783,2.1809,2.1851,2.1877,2.1921,2.1957,2.2029,2.2054,2.2097,2.2099,2.2133,2.2105,2.2104,2.2104,2.2103,2.2109,2.2138,2.2139,2.214,2.214,0,2.1655,2.1664,2.1698,2.1738,2.1767,2.1799,2.183,2.185,2.1871,2.1902,2.1947,2.1976,2.2033,2.2079,2.2126,2.2147,2.215,2.215,2.2161,2.2159,2.2154,2.2162,2.2056,2.2147,2.2146,2.2146,2.2145,2.2145,2.1697,2.1726,2.1759,2.18,2.1826,2.1857,2.1888,2.191,2.1948,2.1995,2.2004,2.2054,2.2092,2.2154,2.2178,2.2221,2.2212,2.2227,2.2231,2.2236,2.224,2.2147,2.2229,2.2229,2.2228,2.2228,2.2228,0,2.1759,2.1782,2.1819,2.1865,2.1899,2.1898,2.1935,2.1964,2.2008,2.2042,2.2079,2.2136,2.2183,2.2214,2.2263,2.2291,2.2294,2.2304,2.2303,2.2309,2.2242,2.223,2.2301,2.2301,2.2301,2.2301,2.2301,2.2301,2.1795,2.1846,2.186,2.1927,2.195,2.1999,2.2021,2.2052,2.2081,2.2143,2.2182,2.2203,2.2238,2.2291,2.2336,2.2344,2.2364,2.2374,2.2383,2.232,2.2313,2.2305,2.2294,2.2378,2.2378,2.2447,2.2448,2.2448]},{"header":{"parameterUnit":"m.s-1","parameterCategory":1,"la1":30.2991,"la2":30.254,"lo1":-89.0895,"lo2":-89.0444,"dy":0.0017,"dx":0.0017,"nx":28,"ny":28,"refTime":"2023-08-09T09:00:00:Z","depth":0,"parameterNumber":3,"parameterNumberName":"V-component_of_WINDS"},"data":[0,0,0,0,0,0,0,0,0,0,0,0,0,0,0,0,0,0,0,0,0,0,0,0,0,0,0,0,0,0,0,0,0,0,0,0,0,0,0,0,0,0,0,0,0,0,0,0,0,0,0,0,0,0,0,0,0,0,3.7746,3.775,0,3.8039,3.8043,3.8046,3.8115,3.8113,3.8111,3.8109,3.841,3.8419,3.8429,0,0,0,0,0,0,0,0,0,0,0,0,0,3.7249,3.7257,3.7746,3.775,3.7754,3.8039,3.8043,3.8047,3.8115,3.8113,3.811,3.8108,3.8406,3.8418,3.843,0,0,0,0,0,0,0,0,0,0,0,0,0,3.7495,3.726,3.7746,3.7822,3.7832,3.8038,3.8043,3.8048,3.8116,3.8113,3.811,3.8107,3.8402,3.8417,3.8431,3.8583,0,0,3.8477,3.8483,0,0,0,0,0,0,0,0,3.7481,3.7514,3.7807,3.7817,3.7828,3.8037,3.7978,3.8227,3.8116,3.8008,3.8109,3.8105,3.8288,3.8312,3.8374,3.8597,3.861,3.8478,3.8487,3.8493,3.8498,0,0,0,0,0,0,0,3.7464,3.7501,3.7862,3.7811,3.7824,3.7843,3.7874,3.8025,3.8161,3.8017,3.8023,3.8056,3.8293,3.8359,3.8381,3.8614,3.8478,3.8491,3.85,3.8506,3.8981,3.8985,0,0,0,0,0,0,3.7433,3.7487,3.7853,3.7871,3.7644,3.7854,3.7889,3.7973,3.816,3.8185,3.8059,3.8059,3.8336,3.8364,3.8392,3.8586,3.8493,3.8507,3.8516,3.8978,3.8982,3.8986,0,0,0,0,0,0,3.7422,3.7465,3.7841,3.7681,3.773,3.7866,3.7959,3.7981,3.8047,3.8191,3.8216,3.8101,3.8334,3.8371,3.8536,3.8597,3.8514,3.8527,3.8973,3.8979,3.8984,3.8971,0,0,0,0,0,0,3.7408,3.7461,3.7519,3.7681,3.7738,3.7979,3.7963,3.7989,3.8072,3.8075,3.8238,3.8262,3.8335,3.8514,3.8551,3.8616,3.8539,3.8968,3.8976,3.8982,3.8966,3.8975,3.8983,0,0,0,0,0,3.739,3.7503,3.7522,3.7565,3.7813,3.7982,3.8015,3.8097,3.8076,3.8137,3.8231,3.8256,3.8583,3.853,3.8572,3.8643,3.8965,3.8974,3.8982,3.8963,3.8973,3.8982,0,0,0,0,0,0,3.7343,3.7525,3.7548,3.7717,3.7834,3.7993,3.8072,3.8105,3.823,3.8227,3.8323,3.836,3.8519,3.8597,3.8534,3.8801,3.8774,3.8791,3.8745,3.8756,3.8764,3.8743,3.8551,0,0,0,0,0,3.7353,3.7474,3.7627,3.7761,3.7818,3.7935,3.8011,3.8065,3.819,3.8239,3.8345,3.8465,3.8596,3.868,3.8808,3.8977,3.9016,3.9047,3.9055,3.9061,3.9076,3.9176,3.9192,3.9014,3.9014,3.9014,0,0,3.7373,3.7488,3.7558,3.7755,3.7851,3.7977,3.7976,3.8107,3.8202,3.8259,3.8423,3.8504,3.8645,3.8814,3.8894,3.8884,3.9133,3.9072,3.9075,3.9087,3.9186,3.9203,3.9218,3.902,3.9019,3.9018,0,0,3.7476,3.7573,3.7698,3.7795,3.7942,3.802,3.8049,3.8206,3.8262,3.8427,3.8474,3.8588,3.8809,3.891,3.899,3.9133,3.9163,3.9172,3.9215,3.9312,3.9326,3.9339,3.9394,3.9412,3.9185,3.9185,3.9185,0,3.7483,3.7673,3.7757,3.7889,3.7975,3.8033,3.8161,3.8252,3.8433,3.8492,3.8478,3.876,3.8859,3.9054,3.909,3.9151,3.919,3.9155,3.9317,3.9331,3.9344,3.9398,3.9418,3.9186,3.9186,3.9186,3.9186,0,3.7677,3.7808,3.7891,3.8066,3.8162,3.829,3.8396,3.8482,3.8527,3.8606,3.8776,3.8897,3.9052,3.9101,3.9146,3.9305,3.9295,3.9297,3.9273,3.936,3.9413,3.9434,3.9186,3.9186,3.9186,3.9186,0,0,3.7759,3.798,3.801,3.8092,3.8259,3.8363,3.8495,3.8648,3.8722,3.8845,3.8961,3.9148,3.9153,3.9244,3.93,3.9384,3.9495,3.9378,3.9383,3.9399,3.9682,3.9682,3.9704,3.9515,3.9519,3.9523,3.9672,0,3.7885,3.8124,3.8204,3.8403,3.8528,3.8586,3.8702,3.8818,3.8896,3.9014,3.9099,3.9233,3.9227,3.9283,3.9368,3.9463,3.9554,3.9453,3.9627,3.9632,3.9593,3.9731,3.973,3.9865,3.9692,3.9696,3.9698,0,3.8064,3.8191,3.8402,3.8558,3.8613,3.8716,3.8864,3.8975,3.9109,3.916,3.9263,3.9314,3.9457,3.9422,3.9622,3.9552,3.9627,3.9685,3.9692,3.9714,3.9673,3.976,3.991,3.9931,3.9731,3.9728,3.9726,0,3.8107,3.8331,3.8488,3.8555,3.874,3.8811,3.8891,3.9023,3.911,3.924,3.9298,3.9442,3.9521,3.9632,3.9722,3.9687,3.9916,3.9887,3.9965,3.9963,4.0013,4.0009,4.018,4.0055,4.0055,4.0054,4.0054,0,3.8241,3.8369,3.851,3.8607,3.8753,3.8845,3.8988,3.9071,3.9188,3.9303,3.9361,3.9468,3.9578,3.9701,3.9771,3.9929,3.9963,4.0011,4.0029,4.0008,4.0003,4.0061,4.0056,4.006,4.0059,4.0058,4.0057,0,3.8315,3.8414,3.859,3.875,3.8794,3.8895,3.9034,3.9131,3.9211,3.9357,3.9397,3.9524,3.9671,3.9771,3.9959,4.0007,4.0179,4.0193,4.0134,4.0144,4.0218,4.0211,4.0436,4.0472,4.0318,4.032,4.0321,0,3.8395,3.8496,3.8668,3.875,3.8831,3.8961,3.9052,3.9147,3.9239,3.9401,3.9479,3.9631,3.9757,3.999,4.01,4.0245,4.0266,4.0335,4.0288,4.0266,4.0273,4.0267,4.028,4.0343,4.0344,4.0345,4.0346,0,3.853,3.8575,3.8703,3.885,3.8956,3.9076,3.9196,3.926,3.9376,3.9477,3.9629,3.9727,3.9921,4.0072,4.0228,4.0312,4.0351,4.0359,4.0386,4.0368,4.0331,4.0357,4.0158,4.0355,4.0354,4.0353,4.0353,4.0352,3.8613,3.8706,3.8843,3.8985,3.9086,3.9198,3.9299,3.9393,3.9521,3.9687,3.9735,3.9894,4.0029,4.0243,4.033,4.0457,4.0451,4.0488,4.0498,4.0507,4.051,4.0308,4.0485,4.0485,4.0485,4.0485,4.0485,0,3.8754,3.8845,3.8975,3.9142,3.9255,3.928,3.9415,3.9508,3.9648,3.977,3.9894,4.0071,4.0218,4.034,4.0493,4.0572,4.0594,4.0609,4.0606,4.0626,4.0504,4.0468,4.0589,4.0589,4.0589,4.0589,4.0589,4.0589,3.884,3.9002,3.9063,3.9276,3.9367,3.9524,3.96,3.9704,3.9803,3.9998,4.0121,4.02,4.0324,4.0487,4.0624,4.0656,4.0712,4.0725,4.0761,4.0646,4.0634,4.0623,4.059,4.0735,4.0735,4.0874,4.0875,4.0876]}]]